Regional Weather Roundup
Issued by NWS

Home | Current Version | Previous Version | Graphics & Text | Print | Product List | Glossary On
Versions: 1 2 3 4 5 6 7 8 9 10 11 12 13 14 15 16 17 18 19 20 21 22 23 24 25 26 27
000
ASUS45 KBOU 250507
RWRCO

WEATHER ROUNDUP FOR COLORADO
NATIONAL WEATHER SERVICE DENVER/BOULDER CO
1000 PM MST FRI FEB 24 2017

NOTE: "FAIR" INDICATES FEW OR NO CLOUDS BELOW 12000 FEET WITH NO
SIGNIFICANT WEATHER AND/OR OBSTRUCTIONS TO VISIBILITY.

COZ001>005-013-030-031-250600-
...NORTHWEST COLORADO...

CITY           SKY/WX    TMP DP  RH WIND       PRES   REMARKS
CRAIG          MOCLDY    10   5  80 CALM      30.07R
HAYDEN         MOCLDY     9   1  72 S5        30.03S WCI   0
MEEKER         CLOUDY    19  16  88 CALM      30.05S
MOUNT WERNER   NOT AVBL
STEAMBOAT SPGS FAIR       8   5  86 CALM      30.02S
WALDEN         NOT AVBL
$$

COZ006>008-011-250600-
...WEST CENTRAL VALLEYS...

CITY           SKY/WX    TMP DP  RH WIND       PRES   REMARKS
GRAND JUNCTION FAIR      22  18  85 NE5       30.09S WCI  16
MONTROSE       FAIR      18  13  80 S8        30.11R WCI   8
EAGLE          FLURRIES  18  16  93 E8        30.04S WCI   7
RIFLE          FAIR      22  21  96 SW5       30.08R WCI  16
DELTA          FAIR      25  15  66 CALM      30.10R
NUCLA          FAIR      21  10  63 E8        30.11R WCI  12
$$

COZ017>023-064>068-250600-
...SOUTHWEST COLORADO...

CITY           SKY/WX    TMP DP  RH WIND       PRES   REMARKS
DURANGO        FAIR      24   6  46 NW10      30.03R WCI  14
CORTEZ         FAIR      20  15  81 E3        30.08R
PAGOSA SPRINGS FAIR      13   6  74 CALM      30.01S
TELLURIDE      MOCLDY    11   9  88 CALM      30.00S
WOLF CREEK PAS FOG        0  -2  92 SW12      29.91S VSB 3/4 WCI -18
$$

COZ009-010-012-014-032>034-037-058>063-250600-
...CENTRAL COLORADO...

CITY           SKY/WX    TMP DP  RH WIND       PRES   REMARKS
ASPEN          CLOUDY    11   8  88 S3        29.96S
BUENA VISTA    FAIR      17   0  46 W10       29.95S WCI   5
COPPER MTN     LGT SNOW   1  -6  71 MISG      29.79S
BERTHOUD PASS  CLOUDY    -8 -17  65 NW17      29.74F HAZE    WCI -31
COTTONWOOD PAS MOCLDY    14  -4  44 CALM      29.88S
GUNNISON       LGT SNOW  13   8  81 CALM      30.01R
KREMMLING      CLOUDY    21   9  58 NW3       29.99S
LEADVILLE      MOCLDY     3  -5  69 NW8       29.87S WCI -10
MONARCH PASS   CLOUDY     1  -4  78 W24G33    29.91F WCI -22
SALIDA         MOCLDY    21   6  53 SW7       30.04S WCI  12
SUNLIGHT       NOT AVBL
WILKERSON PASS LGT SNOW   5   1  85 SW9       29.84S VSB 3/4 WCI  -9
$$

COZ069>075-250600-
...SAN LUIS VALLEY/SANGRE DE CRISTO MOUNTAINS...

CITY           SKY/WX    TMP DP  RH WIND       PRES   REMARKS
ALAMOSA        FAIR      17  13  84 CALM      29.98R
LA VETA PASS   MOCLDY     9   5  85 SW8       29.89S WCI  -4
SAGUACHE       FAIR      18   5  57 NW10      29.98S WCI   6
$$

COZ035-036-038>040-250600-
...NORTHERN COLORADO FRONT RANGE...

CITY           SKY/WX    TMP DP  RH WIND       PRES   REMARKS
DENVER INTL AP MOCLDY    19  15  84 S8        30.02S WCI   9
DMNS CITY PARK   N/A     22  14  71 SW5       30.03S WCI  16
AURORA         MOCLDY    19  16  87 S6        30.02S WCI  11
FRONT RANGE AP NOT AVBL
ERIE MUNI ARPT FAIR      21  17  86 CALM      30.04S
BOULDER MUN AP FAIR      21  12  68 SW3       30.03S
CENTENNIAL     MOCLDY    20  13  74 CALM      30.01S
BROOMFIELD     CLOUDY    19  18  93 CALM      30.02S
FORT COLLINS   FAIR      17  14  88 N3        30.05S
LONGMONT       FAIR      17  12  80 W6        30.06S WCI   8
$$

COZ041-046-047-076>085-087-088-250600-
...PIKES PEAK/PALMER DIVIDE AND SOUTHERN FOOTHILLS...

CITY           SKY/WX    TMP DP  RH WIND       PRES   REMARKS
COLO. SPRINGS  CLOUDY    18  12  77 SE7       30.02S WCI   9
A. F. ACADEMY  CLOUDY    19  15  87 S7        29.99S WCI   9
SCHRIEVER AFB  FAIR      16  11  78 S5        30.03R WCI   9
ELLICOTT       FAIR     N/A N/A N/A S5        30.01R
FALCON         LGT SNOW  15  13  92 CALM      30.00S
FORT CARSON    CLOUDY    19  10  68 SE7       30.03R WCI   9
LIMON          MOCLDY    15  12  88 W3        30.05R
MONUMENT HILL  CLOUDY    16  14  93 SW7       29.98S WCI   6
TRINIDAD       FAIR      16   6  65 NW6       30.04R WCI   7
$$

COZ042>045-048>051-090-091-250600-
...NORTHEAST COLORADO...

CITY           SKY/WX    TMP DP  RH WIND       PRES   REMARKS
GREELEY ARPT   FAIR      18  15  88 S3        30.07S
AKRON          FAIR      10   6  84 SW5       30.06S WCI   2
BURLINGTON     FAIR      19  13  77 N3        30.10S
WRAY           NOT AVBL
STERLING       FAIR      10   9  92 W3        30.08R
HOLYOKE        FAIR      14  10  85 CALM      30.11S
FORT MORGAN    FAIR      19  14  80 SE3       30.07S
$$

COZ086-089-092>099-250600-
...SOUTHEAST COLORADO...

CITY           SKY/WX    TMP DP  RH WIND       PRES   REMARKS
PUEBLO         FAIR      24  10  55 E8        30.08R WCI  15
LA JUNTA       FAIR      25  12  58 SE6       30.11R WCI  18
LAMAR          CLOUDY    24  13  62 SE3       30.11R
SPRINGFIELD      N/A     18  11  74 N5        30.08R WCI  11
$$




USA.gov is the U.S. government's official web portal to all federal, state and local government web resources and services.